QPF
0.00 0.00 0.00 0.00 0.00 0.00 0.00 0.00 0.00 0.00 0.00 0.00 0.00 0.00 0.00 0.00 0.00 0.00 0.00 0.00 0.00 0.00 0.00 0.00 0.00 0.00 0.01 0.01 0.02 0.04 0.05 0.18 0.11 0.01 0.00 0.00 0.00 0.00 0.00 0.00 0.00 0.00 0.00 0.00 0.00 0.00 0.00 0.00 0.00
0.00 0.00 0.00 0.00 0.00 0.00 0.00 0.00 0.00 0.00 0.00 0.00 0.00 0.00 0.00 0.00 0.00 0.00 0.00 0.00 0.00 0.00 0.00 0.00 0.00 0.00 0.00 0.01 0.03 0.07 0.17 0.17 0.03 0.00 0.00 0.00 0.00 0.00 0.00 0.00 0.00 0.00 0.00 0.00 0.00 0.00 0.00 0.00 0.00
0.00 0.00 0.00 0.00 0.00 0.00 0.00 0.00 0.00 0.00 0.00 0.00 0.00 0.00 0.00 0.00 0.00 0.00 0.00 0.00 0.00 0.00 0.00 0.00 0.00 0.00 0.00 0.00 0.02 0.06 0.13 0.10 0.02 0.00 0.00 0.00 0.00 0.00 0.00 0.00 0.00 0.00 0.00 0.00 0.00 0.00 0.00 0.00 0.00
0.00 0.00 0.00 0.00 0.00 0.00 0.00 0.00 0.00 0.00 0.00 0.00 0.00 0.00 0.00 0.00 0.00 0.00 0.00 0.00 0.00 0.00 0.00 0.00 0.00 0.00 0.00 0.00 0.00 0.00 0.00 0.00 0.00 0.00 0.00 0.00 0.00 0.00 0.00 0.00 0.00 0.00 0.00 0.00 0.00 0.00 0.00 0.00 0.00
0.00 0.00 0.00 0.00 0.00 0.00 0.00 0.00 0.00 0.00 0.00 0.00 0.00 0.00 0.00 0.00 0.00 0.00 0.00 0.00 0.00 0.00 0.00 0.00 0.00 0.00 0.00 0.00 0.00 0.00 0.00 0.00 0.00 0.00 0.00 0.00 0.00 0.00 0.00 0.00 0.00 0.00 0.00 0.00 0.00 0.00 0.00 0.00 0.00
0.00 0.00 0.00 0.00 0.00 0.00 0.00 0.00 0.00 0.00 0.00 0.00 0.00 0.00 0.00 0.00 0.00 0.00 0.00 0.00 0.00 0.00 0.00 0.00 0.00 0.00 0.00 0.00 0.00 0.00 0.00 0.00 0.00 0.00 0.00 0.00 0.00 0.00 0.00 0.00 0.00 0.00 0.00 0.00 0.00 0.00 0.00 0.00 0.00
0.00 0.00 0.00 0.00 0.00 0.00 0.00 0.00 0.00 0.00 0.00 0.00 0.00 0.00 0.00 0.00 0.00 0.00 0.00 0.00 0.00 0.00 0.00 0.00 0.00 0.00 0.00 0.00 0.00 0.00 0.00 0.00 0.00 0.00 0.00 0.00 0.00 0.00 0.00 0.00 0.00 0.00 0.00 0.00 0.00 0.00 0.00 0.00 0.00
0.00 0.00 0.00 0.00 0.00 0.00 0.00 0.00 0.00 0.01 0.00 0.00 0.00 0.00 0.00 0.00 0.00 0.00 0.00 0.00 0.00 0.00 0.00 0.00 0.00 0.00 0.00 0.00 0.00 0.00 0.00 0.00 0.00 0.00 0.00 0.00 0.00 0.00 0.00 0.00 0.00 0.00 0.00 0.00 0.00 0.00 0.00 0.00 0.00
0.00 0.00 0.00 0.00 0.00 0.00 0.00 0.00 0.00 0.00 0.00 0.00 0.00 0.00 0.00 0.00 0.00 0.00 0.00 0.00 0.00 0.00 0.00 0.00 0.00 0.00 0.00 0.00 0.00 0.00 0.00 0.00 0.00 0.00 0.00 0.00 0.00 0.00 0.00 0.00 0.00 0.00 0.00 0.00 0.00 0.00 0.00 0.00 0.00
0.00 0.00 0.00 0.00 0.00 0.00 0.00 0.00 0.00 0.00 0.00 0.00 0.00 0.00 0.00 0.00 0.00 0.00 0.00 0.00 0.00 0.00 0.00 0.00 0.00 0.00 0.00 0.00 0.00 0.00 0.00 0.00 0.00 0.00 0.00 0.00 0.00 0.00 0.00 0.00 0.00 0.00 0.00 0.00 0.00 0.00 0.00 0.00 0.00
0.00 0.00 0.00 0.00 0.00 0.00 0.00 0.00 0.00 0.00 0.00 0.00 0.00 0.00 0.00 0.00 0.00 0.00 0.00 0.00 0.00 0.00 0.00 0.00 0.00 0.00 0.00 0.00 0.00 0.00 0.00 0.00 0.00 0.00 0.00 0.00 0.00 0.00 0.00 0.00 0.00 0.00 0.00 0.00 0.00 0.00 0.00 0.00 0.00
0.00 0.00 0.00 0.00 0.00 0.00 0.00 0.00 0.00 0.00 0.00 0.00 0.00 0.00 0.00 0.00 0.00 0.00 0.00 0.00 0.00 0.00 0.00 0.00 0.00 0.00 0.00 0.00 0.00 0.00 0.00 0.00 0.00 0.00 0.00 0.00 0.00 0.00 0.00 0.00 0.00 0.00 0.00 0.00 0.00 0.00 0.00 0.00 0.00
0.00 0.00 0.00 0.00 0.00 0.00 0.00 0.00 0.00 0.00 0.00 0.00 0.00 0.00 0.00 0.00 0.00 0.00 0.00 0.00 0.00 0.00 0.00 0.00 0.00 0.00 0.00 0.00 0.00 0.00 0.00 0.00 0.00 0.00 0.00 0.00 0.00 0.00 0.00 0.00 0.00 0.00 0.00 0.00 0.00 0.00 0.00 0.00 0.00
0.00 0.00 0.00 0.00 0.00 0.00 0.00 0.00 0.00 0.00 0.00 0.00 0.00 0.00 0.00 0.00 0.00 0.00 0.00 0.00 0.00 0.00 0.00 0.00 0.00 0.00 0.00 0.00 0.00 0.00 0.00 0.00 0.00 0.00 0.00 0.00 0.00 0.00 0.00 0.00 0.00 0.00 0.00 0.00 0.00 0.00 0.00 0.00 0.00
0.00 0.00 0.00 0.00 0.00 0.00 0.00 0.00 0.00 0.00 0.00 0.00 0.00 0.00 0.00 0.00 0.00 0.00 0.00 0.00 0.00 0.00 0.00 0.00 0.00 0.00 0.00 0.00 0.00 0.00 0.00 0.00 0.00 0.00 0.00 0.00 0.00 0.00 0.00 0.00 0.00 0.00 0.00 0.00 0.00 0.00 0.00 0.00 0.00
0.01 0.00 0.00 0.00 0.00 0.00 0.00 0.00 0.00 0.00 0.00 0.00 0.00 0.00 0.00 0.00 0.00 0.00 0.00 0.00 0.00 0.00 0.00 0.00 0.00 0.00 0.00 0.00 0.00 0.00 0.00 0.00 0.00 0.00 0.00 0.00 0.00 0.00 0.00 0.00 0.00 0.00 0.00 0.00 0.00 0.00 0.00 0.00 0.00
0.01 0.00 0.00 0.00 0.00 0.00 0.00 0.00 0.00 0.01 0.01 0.00 0.00 0.00 0.00 0.00 0.00 0.00 0.00 0.00 0.00 0.00 0.00 0.00 0.00 0.00 0.00 0.00 0.00 0.00 0.00 0.00 0.00 0.00 0.00 0.00 0.00 0.00 0.00 0.00 0.00 0.00 0.00 0.00 0.00 0.00 0.00 0.00 0.00
0.00 0.00 0.00 0.00 0.00 0.00 0.00 0.00 0.00 0.02 0.04 0.00 0.00 0.00 0.00 0.00 0.00 0.00 0.00 0.00 0.00 0.00 0.00 0.00 0.00 0.00 0.00 0.00 0.00 0.00 0.00 0.00 0.00 0.00 0.00 0.00 0.00 0.00 0.00 0.00 0.00 0.00 0.00 0.00 0.00 0.00 0.00 0.00 0.00
0.00 0.00 0.00 0.00 0.00 0.00 0.00 0.00 0.00 0.00 0.03 0.04 0.03 0.01 0.00 0.00 0.00 0.00 0.00 0.00 0.00 0.00 0.00 0.00 0.00 0.00 0.00 0.00 0.00 0.00 0.00 0.00 0.00 0.00 0.00 0.00 0.00 0.00 0.00 0.00 0.00 0.00 0.00 0.00 0.00 0.00 0.00 0.00 0.00
0.00 0.00 0.00 0.00 0.00 0.00 0.00 0.00 0.00 0.00 0.00 0.01 0.05 0.04 0.04 0.01 0.00 0.00 0.00 0.00 0.00 0.00 0.00 0.00 0.00 0.00 0.00 0.00 0.00 0.00 0.00 0.00 0.00 0.00 0.00 0.00 0.00 0.00 0.00 0.00 0.00 0.00 0.00 0.00 0.00 0.00 0.00 0.00 0.00
0.00 0.00 0.00 0.00 0.00 0.00 0.00 0.00 0.00 0.00 0.00 0.00 0.03 0.09 0.07 0.05 0.02 0.00 0.00 0.00 0.00 0.00 0.00 0.00 0.00 0.00 0.00 0.00 0.00 0.00 0.00 0.00 0.00 0.00 0.00 0.00 0.00 0.00 0.00 0.00 0.00 0.00 0.00 0.00 0.00 0.00 0.00 0.00 0.00
0.00 0.00 0.00 0.00 0.00 0.00 0.00 0.00 0.00 0.00 0.00 0.00 0.00 0.01 0.01 0.01 0.02 0.02 0.01 0.00 0.00 0.00 0.00 0.00 0.00 0.00 0.00 0.00 0.00 0.00 0.00 0.00 0.00 0.00 0.00 0.00 0.00 0.00 0.00 0.00 0.00 0.00 0.00 0.00 0.00 0.00 0.00 0.00 0.00
0.00 0.00 0.00 0.00 0.00 0.00 0.00 0.00 0.00 0.00 0.00 0.00 0.00 0.00 0.01 0.02 0.04 0.05 0.06 0.02 0.02 0.05 0.06 0.05 0.04 0.03 0.01 0.02 0.01 0.00 0.00 0.00 0.00 0.00 0.00 0.00 0.00 0.00 0.00 0.00 0.00 0.00 0.00 0.00 0.00 0.00 0.00 0.00 0.00
0.00 0.00 0.00 0.01 0.00 0.00 0.00 0.00 0.00 0.00 0.00 0.00 0.00 0.00 0.01 0.01 0.03 0.04 0.08 0.09 0.07 0.06 0.06 0.06 0.06 0.07 0.06 0.03 0.02 0.01 0.00 0.00 0.00 0.00 0.00 0.00 0.00 0.00 0.00 0.00 0.00 0.00 0.00 0.00 0.00 0.00 0.00 0.00 0.00
0.00 0.00 0.00 0.00 0.00 0.00 0.00 0.00 0.00 0.00 0.00 0.00 0.00 0.00 0.00 0.00 0.01 0.04 0.06 0.08 0.06 0.03 0.01 0.02 0.04 0.04 0.03 0.02 0.01 0.00 0.00 0.00 0.00 0.00 0.00 0.00 0.00 0.00 0.00 0.00 0.00 0.00 0.00 0.00 0.00 0.00 0.00 0.00 0.00
0.00 0.00 0.00 0.00 0.00 0.00 0.00 0.00 0.00 0.00 0.00 0.00 0.00 0.00 0.00 0.01 0.01 0.02 0.04 0.04 0.03 0.00 0.01 0.02 0.03 0.02 0.01 0.00 0.00 0.00 0.00 0.00 0.00 0.00 0.00 0.00 0.00 0.00 0.00 0.00 0.00 0.00 0.00 0.00 0.00 0.00 0.00 0.00 0.00
0.00 0.00 0.00 0.00 0.00 0.00 0.00 0.00 0.00 0.00 0.00 0.00 0.00 0.00 0.00 0.00 0.00 0.00 0.00 0.01 0.00 0.00 0.01 0.01 0.01 0.00 0.00 0.00 0.00 0.00 0.00 0.00 0.00 0.00 0.00 0.00 0.00 0.00 0.00 0.00 0.00 0.00 0.00 0.00 0.00 0.00 0.00 0.00 0.00
0.00 0.00 0.00 0.00 0.00 0.00 0.00 0.00 0.00 0.00 0.00 0.00 0.00 0.00 0.00 0.00 0.00 0.00 0.00 0.00 0.00 0.00 0.00 0.00 0.00 0.00 0.00 0.00 0.00 0.00 0.00 0.00 0.00 0.00 0.00 0.00 0.00 0.00 0.00 0.00 0.00 0.00 0.00 0.00 0.00 0.00 0.00 0.00 0.00
0.00 0.01 0.00 0.00 0.00 0.00 0.00 0.00 0.00 0.00 0.00 0.00 0.00 0.00 0.00 0.00 0.00 0.00 0.00 0.00 0.00 0.00 0.00 0.00 0.00 0.00 0.00 0.00 0.00 0.00 0.00 0.00 0.00 0.00 0.00 0.00 0.00 0.00 0.00 0.00 0.00 0.00 0.00 0.00 0.00 0.00 0.00 0.00 0.00
0.00 0.01 0.01 0.00 0.00 0.00 0.00 0.00 0.00 0.00 0.00 0.00 0.00 0.00 0.00 0.00 0.00 0.00 0.00 0.00 0.00 0.00 0.00 0.00 0.00 0.00 0.00 0.00 0.00 0.00 0.00 0.00 0.00 0.00 0.00 0.00 0.00 0.00 0.00 0.00 0.00 0.00 0.00 0.00 0.00 0.00 0.00 0.00 0.00
MSLP
1014.09 1013.97 1014.00 1014.39 1015.72 1015.74 1015.02 1014.36 1013.61 1013.66 1014.07 1014.47 1014.71 1015.37 1016.07 1016.95 1017.41 1018.46 1017.99 1018.08 1018.12 1018.60 1018.88 1019.05 1019.16 1019.27 1019.25 1019.15 1019.31 1019.72 1020.02 1020.25 1020.45 1020.71 1020.95 1021.13 1021.24 1021.34 1021.42 1021.47 1021.45 1021.41 1021.40 1021.43 1021.46 1021.45 1021.43 1021.40 1021.35
1014.05 1014.05 1014.46 1015.24 1016.01 1016.13 1015.29 1014.24 1014.04 1013.75 1014.39 1015.03 1015.15 1015.92 1016.60 1017.28 1017.50 1018.02 1018.23 1018.30 1018.24 1018.79 1019.04 1019.27 1019.43 1019.48 1019.46 1019.35 1019.60 1019.91 1020.18 1020.47 1020.66 1020.94 1021.20 1021.39 1021.49 1021.61 1021.74 1021.79 1021.74 1021.69 1021.68 1021.68 1021.67 1021.66 1021.62 1021.56 1021.49
1013.93 1014.12 1015.45 1015.74 1016.21 1015.92 1015.05 1014.21 1013.87 1014.05 1014.63 1014.92 1015.63 1016.21 1016.81 1017.41 1017.76 1017.94 1017.98 1018.28 1018.50 1019.03 1019.24 1019.50 1019.64 1019.73 1019.79 1019.81 1019.88 1020.17 1020.42 1020.64 1020.82 1021.02 1021.33 1021.54 1021.60 1021.78 1021.95 1022.05 1022.07 1022.01 1021.96 1021.94 1021.91 1021.85 1021.80 1021.74 1021.64
1014.36 1014.85 1016.10 1016.08 1016.07 1015.09 1014.43 1013.76 1013.68 1014.04 1014.72 1015.01 1015.77 1016.75 1016.94 1016.86 1017.25 1017.76 1018.24 1018.44 1018.73 1019.20 1019.49 1019.70 1019.84 1019.97 1020.14 1020.25 1020.37 1020.54 1020.75 1020.94 1021.12 1021.27 1021.49 1021.72 1021.94 1022.00 1022.03 1022.29 1022.30 1022.30 1022.26 1022.19 1022.18 1022.14 1022.07 1021.94 1021.81
1014.95 1015.57 1016.38 1016.41 1015.63 1014.68 1013.99 1013.50 1013.39 1014.14 1014.70 1015.38 1015.88 1016.88 1017.16 1017.16 1017.14 1017.79 1018.45 1018.60 1019.02 1019.47 1019.75 1019.91 1020.06 1020.17 1020.33 1020.52 1020.72 1020.90 1021.11 1021.28 1021.42 1021.63 1021.83 1022.02 1022.22 1022.30 1022.33 1022.41 1022.48 1022.49 1022.45 1022.40 1022.33 1022.29 1022.21 1022.11 1021.94
1015.50 1015.93 1016.61 1016.51 1015.39 1014.44 1013.83 1013.29 1013.02 1013.79 1014.84 1015.73 1016.17 1016.86 1017.56 1017.59 1017.52 1018.13 1018.58 1018.97 1019.08 1019.51 1019.97 1020.20 1020.35 1020.50 1020.58 1020.75 1020.94 1021.13 1021.34 1021.56 1021.74 1021.93 1022.13 1022.24 1022.38 1022.49 1022.57 1022.60 1022.61 1022.61 1022.58 1022.50 1022.42 1022.34 1022.24 1022.10 1021.92
1015.73 1016.11 1016.21 1015.92 1015.17 1014.35 1013.70 1013.24 1013.30 1013.36 1014.85 1015.55 1015.89 1017.01 1017.76 1018.01 1017.92 1018.17 1018.64 1019.05 1019.40 1019.73 1020.13 1020.50 1020.71 1020.83 1020.99 1021.12 1021.26 1021.42 1021.60 1021.76 1021.92 1022.13 1022.31 1022.43 1022.60 1022.69 1022.73 1022.72 1022.69 1022.67 1022.68 1022.64 1022.55 1022.43 1022.28 1022.16 1021.99
1016.05 1016.09 1015.90 1015.39 1014.87 1014.08 1013.48 1013.55 1013.30 1013.18 1014.84 1015.40 1015.79 1016.44 1017.36 1017.68 1018.07 1018.34 1018.94 1019.36 1019.68 1019.98 1020.31 1020.70 1020.96 1021.11 1021.23 1021.44 1021.56 1021.65 1021.75 1021.94 1022.14 1022.37 1022.54 1022.63 1022.77 1022.79 1022.79 1022.85 1022.82 1022.78 1022.74 1022.60 1022.44 1022.41 1022.39 1022.29 1022.21
1015.73 1015.93 1015.70 1014.83 1014.33 1013.69 1013.33 1013.57 1013.68 1013.73 1014.60 1015.76 1015.93 1015.84 1015.82 1017.01 1018.05 1018.60 1019.06 1019.54 1019.86 1020.27 1020.52 1020.84 1021.14 1021.38 1021.55 1021.67 1021.83 1021.89 1022.00 1022.10 1022.30 1022.50 1022.72 1022.88 1023.02 1023.12 1023.10 1023.05 1023.00 1022.92 1022.80 1022.65 1022.55 1022.47 1022.33 1022.21 1022.07
1015.88 1016.19 1014.91 1013.90 1013.47 1013.15 1013.16 1013.29 1013.53 1014.16 1015.02 1015.93 1015.91 1016.01 1016.28 1017.35 1018.04 1018.45 1018.77 1019.23 1019.66 1020.14 1020.65 1020.84 1021.11 1021.40 1021.68 1021.76 1022.04 1022.07 1022.21 1022.45 1022.64 1022.80 1022.92 1023.03 1023.06 1023.14 1023.16 1023.17 1023.12 1023.02 1022.82 1022.78 1022.67 1022.51 1022.30 1022.14 1022.05
1015.63 1015.48 1014.52 1013.46 1012.92 1012.88 1012.83 1013.24 1013.29 1014.03 1015.03 1014.81 1014.90 1015.85 1016.56 1017.32 1018.03 1018.46 1018.91 1019.08 1019.34 1019.89 1020.50 1020.87 1021.06 1021.34 1021.65 1021.84 1022.16 1022.35 1022.46 1022.64 1022.82 1022.89 1022.96 1023.09 1023.16 1023.21 1023.26 1023.26 1023.14 1023.04 1022.95 1022.99 1022.80 1022.55 1022.35 1022.11 1022.08
1015.35 1014.90 1014.46 1013.56 1012.86 1012.80 1012.70 1012.76 1013.17 1013.52 1013.70 1013.47 1014.39 1014.63 1015.96 1016.93 1017.55 1017.96 1018.66 1019.02 1019.39 1019.87 1020.27 1020.62 1020.90 1021.20 1021.57 1021.86 1022.11 1022.35 1022.58 1022.70 1022.80 1022.85 1022.90 1023.05 1023.22 1023.25 1023.23 1023.31 1023.09 1022.98 1022.83 1022.90 1022.87 1022.81 1022.70 1022.51 1022.36
1014.77 1014.40 1014.12 1013.45 1013.12 1012.64 1012.68 1012.61 1012.86 1013.27 1013.74 1013.82 1014.68 1015.55 1016.00 1016.75 1017.43 1017.91 1018.36 1018.98 1019.34 1019.70 1020.07 1020.34 1020.70 1021.02 1021.34 1021.77 1022.02 1022.33 1022.53 1022.64 1022.64 1022.74 1022.87 1022.95 1023.10 1023.14 1023.12 1023.00 1022.83 1022.80 1022.72 1022.84 1022.91 1022.84 1022.86 1022.85 1022.77
1014.31 1014.40 1013.96 1013.56 1013.22 1012.70 1012.72 1012.77 1012.69 1013.59 1013.99 1014.63 1015.04 1015.67 1016.19 1016.56 1017.10 1017.74 1018.22 1018.80 1019.18 1019.53 1019.86 1020.11 1020.47 1020.79 1021.17 1021.46 1021.82 1022.00 1022.24 1022.39 1022.55 1022.71 1022.86 1022.89 1022.96 1022.99 1022.88 1023.09 1023.22 1023.24 1023.21 1023.17 1023.19 1023.31 1023.31 1023.24 1023.22
1014.61 1014.51 1013.86 1013.35 1013.48 1013.28 1012.73 1013.04 1012.66 1013.32 1014.13 1014.83 1015.27 1015.74 1016.44 1016.72 1017.17 1017.43 1017.83 1018.28 1018.63 1019.10 1019.66 1020.02 1020.21 1020.57 1020.99 1021.28 1021.56 1021.74 1021.89 1022.45 1022.81 1022.91 1022.93 1022.93 1022.90 1022.93 1023.27 1023.67 1023.72 1023.81 1023.78 1023.62 1023.57 1023.52 1023.59 1023.45 1023.16
1014.72 1014.36 1013.62 1012.79 1013.56 1013.26 1013.04 1012.68 1012.58 1013.18 1014.03 1014.94 1015.39 1015.82 1016.29 1016.65 1016.97 1017.32 1017.63 1017.99 1018.40 1018.73 1019.36 1019.86 1019.97 1020.55 1020.84 1021.02 1021.32 1021.91 1022.49 1022.83 1022.99 1023.19 1023.35 1023.43 1023.40 1023.41 1023.69 1023.93 1024.12 1024.14 1024.06 1024.00 1024.10 1024.12 1024.05 1023.98 1023.74
1013.67 1012.73 1012.64 1012.91 1012.39 1012.93 1013.29 1012.58 1012.23 1013.07 1013.65 1014.73 1015.17 1015.67 1016.13 1016.73 1016.92 1017.11 1017.31 1017.69 1018.01 1018.45 1018.89 1019.68 1020.11 1020.48 1020.84 1021.38 1021.81 1022.42 1023.07 1023.39 1023.78 1023.94 1024.01 1024.01 1024.05 1024.14 1024.30 1024.50 1024.61 1024.55 1024.30 1024.51 1024.71 1024.45 1024.47 1024.52 1024.10
1015.06 1013.57 1012.73 1012.51 1011.93 1013.10 1012.85 1012.26 1012.45 1012.64 1013.20 1014.00 1014.72 1015.28 1015.85 1016.35 1016.52 1016.89 1017.20 1017.48 1017.88 1018.33 1018.84 1019.23 1019.86 1020.34 1020.85 1021.74 1022.43 1023.13 1023.76 1024.21 1024.55 1024.73 1024.85 1024.82 1024.84 1024.74 1024.79 1025.19 1025.32 1025.19 1025.30 1025.19 1025.02 1025.16 1024.95 1025.00 1024.74
1015.29 1015.25 1014.59 1012.57 1012.14 1013.10 1012.54 1012.30 1012.35 1012.39 1012.97 1013.69 1014.48 1015.05 1015.55 1016.06 1016.60 1016.83 1017.19 1017.62 1018.12 1018.59 1018.92 1019.30 1019.68 1020.37 1021.03 1021.92 1022.69 1023.43 1024.36 1025.01 1025.37 1025.49 1025.56 1025.54 1025.52 1025.51 1025.49 1025.64 1025.80 1026.02 1026.05 1025.95 1025.62 1025.51 1025.60 1025.61 1024.90
1015.10 1015.79 1015.25 1013.52 1012.20 1012.64 1012.63 1012.12 1011.59 1012.23 1012.60 1013.02 1013.71 1014.72 1015.42 1016.08 1017.02 1017.38 1017.72 1018.09 1018.60 1019.07 1019.42 1019.70 1020.02 1020.24 1020.91 1021.51 1022.41 1023.18 1024.35 1025.43 1025.86 1026.23 1026.32 1026.34 1026.39 1026.26 1026.26 1026.33 1026.24 1026.17 1026.81 1027.04 1026.55 1026.31 1026.15 1026.42 1026.11
1015.69 1016.03 1015.62 1015.37 1012.93 1012.12 1012.55 1012.31 1012.13 1011.85 1012.46 1012.81 1013.42 1014.05 1015.23 1015.74 1017.02 1018.01 1018.54 1018.94 1019.25 1019.77 1020.17 1020.41 1020.71 1020.77 1021.10 1021.77 1022.60 1023.64 1024.55 1025.43 1026.19 1026.77 1027.16 1027.39 1027.19 1027.60 1026.72 1026.94 1027.56 1027.00 1027.15 1027.34 1027.46 1027.27 1027.16 1027.22 1027.12
1015.53 1016.05 1015.99 1014.82 1013.25 1010.89 1011.23 1010.91 1011.57 1012.25 1012.65 1012.68 1013.52 1014.34 1015.29 1016.43 1017.65 1018.27 1019.01 1019.69 1020.11 1020.71 1021.05 1021.22 1021.34 1021.48 1021.77 1022.03 1022.76 1023.40 1024.28 1025.41 1026.66 1027.37 1027.56 1027.45 1027.71 1027.96 1028.54 1027.59 1028.07 1027.26 1027.98 1027.94 1028.10 1028.11 1028.14 1028.05 1028.20
1015.27 1015.30 1015.20 1014.34 1012.46 1011.49 1010.71 1011.33 1010.40 1011.81 1012.53 1013.30 1013.81 1014.61 1015.69 1016.77 1017.70 1018.55 1019.52 1020.21 1020.99 1021.04 1021.68 1021.95 1022.12 1022.41 1022.67 1022.96 1023.67 1024.05 1025.20 1026.28 1026.96 1027.35 1028.23 1028.32 1028.28 1027.88 1028.86 1028.82 1028.71 1028.20 1028.56 1028.56 1029.07 1029.17 1029.09 1029.01 1029.04
1015.42 1014.49 1014.68 1013.01 1012.12 1010.67 1010.15 1010.39 1010.59 1010.63 1010.79 1013.30 1014.26 1015.38 1016.20 1017.30 1018.37 1019.20 1020.27 1020.92 1021.74 1021.60 1021.99 1022.33 1022.67 1023.24 1023.56 1023.95 1024.53 1025.19 1026.18 1027.60 1027.87 1027.61 1028.10 1028.78 1029.05 1029.20 1028.83 1028.97 1029.16 1029.06 1029.02 1029.51 1029.71 1029.84 1029.92 1029.98 1029.92
1015.19 1015.47 1014.68 1013.10 1012.00 1010.36 1010.15 1010.99 1010.60 1010.56 1011.21 1012.20 1013.99 1015.62 1016.65 1017.81 1018.88 1019.64 1020.47 1021.41 1022.17 1021.95 1022.52 1022.84 1023.39 1023.99 1024.49 1024.89 1025.19 1025.39 1026.32 1027.23 1027.86 1028.48 1028.57 1029.14 1029.43 1029.81 1029.35 1029.55 1029.67 1030.09 1030.06 1029.94 1029.86 1030.00 1030.20 1030.53 1030.80
1014.96 1015.28 1015.43 1013.95 1012.24 1011.29 1010.83 1010.81 1011.12 1012.06 1012.34 1012.56 1014.11 1015.74 1016.96 1018.65 1019.49 1020.13 1020.90 1021.29 1022.29 1022.45 1022.88 1023.60 1024.15 1024.51 1025.05 1025.44 1026.20 1026.69 1026.82 1027.71 1028.19 1029.23 1029.11 1029.70 1029.93 1029.76 1029.78 1030.22 1030.30 1030.39 1030.22 1030.32 1030.43 1030.63 1030.83 1030.93 1030.96
1014.96 1015.25 1015.28 1014.36 1012.98 1011.76 1011.51 1012.20 1012.46 1012.97 1013.65 1013.95 1015.43 1016.80 1017.89 1018.83 1020.01 1020.82 1021.41 1021.57 1022.49 1023.11 1023.41 1023.88 1024.72 1025.10 1025.58 1026.08 1026.58 1027.54 1027.73 1028.08 1028.97 1028.98 1029.48 1030.37 1030.30 1030.08 1030.52 1030.73 1030.87 1030.84 1030.96 1031.07 1031.10 1031.22 1031.54 1031.55 1031.55
1014.38 1014.66 1014.82 1014.55 1013.93 1012.55 1012.10 1012.35 1012.84 1013.76 1014.75 1015.46 1016.56 1017.63 1018.72 1019.65 1020.41 1021.30 1021.73 1022.23 1022.66 1023.44 1023.72 1024.35 1025.17 1025.76 1026.38 1026.91 1027.26 1027.95 1028.38 1028.59 1029.07 1029.56 1030.22 1030.37 1030.32 1030.52 1030.79 1031.24 1031.48 1031.45 1031.68 1031.66 1031.66 1031.76 1032.05 1032.05 1032.15
1014.75 1014.39 1014.33 1014.65 1014.79 1013.80 1012.74 1013.16 1013.58 1013.65 1014.82 1015.77 1017.21 1018.16 1018.94 1019.84 1020.49 1021.17 1021.74 1022.53 1023.54 1023.87 1024.47 1025.06 1025.56 1026.30 1027.04 1027.37 1027.83 1028.36 1028.74 1029.13 1029.52 1029.86 1030.32 1030.63 1030.88 1031.09 1031.45 1031.86 1031.97 1032.13 1032.10 1032.00 1032.10 1032.20 1032.50 1032.44 1032.51
1014.68 1014.50 1014.27 1014.66 1014.78 1013.89 1013.67 1013.88 1014.02 1013.78 1014.44 1015.99 1017.46 1018.60 1019.54 1020.27 1020.88 1021.68 1022.44 1023.40 1024.19 1024.21 1025.10 1025.57 1026.23 1026.85 1027.47 1027.83 1028.28 1028.78 1029.50 1029.67 1029.77 1030.19 1030.80 1030.94 1031.35 1031.62 1031.84 1032.20 1032.45 1032.58 1032.78 1032.70 1032.74 1032.60 1032.85 1032.83 1032.85
Thickness
5720 5721 5722 5714 5686 5680 5684 5697 5713 5712 5713 5713 5718 5715 5709 5701 5704 5694 5707 5709 5709 5705 5704 5702 5700 5700 5700 5701 5700 5697 5695 5693 5692 5691 5689 5688 5687 5687 5686 5686 5685 5685 5685 5684 5683 5683 5683 5682 5682
5716 5718 5712 5695 5673 5662 5674 5701 5704 5717 5711 5708 5714 5708 5701 5695 5704 5701 5703 5707 5708 5704 5703 5701 5699 5699 5699 5700 5698 5696 5694 5692 5691 5690 5688 5686 5686 5685 5684 5683 5683 5683 5683 5682 5681 5681 5681 5681 5680
5714 5714 5693 5681 5665 5665 5675 5702 5708 5713 5710 5715 5707 5707 5702 5696 5701 5703 5707 5706 5705 5702 5700 5699 5698 5697 5697 5697 5697 5694 5693 5691 5690 5689 5687 5685 5684 5683 5681 5680 5680 5680 5680 5679 5679 5679 5679 5678 5678
5702 5697 5684 5671 5672 5686 5693 5706 5713 5712 5711 5713 5707 5696 5705 5710 5707 5707 5705 5704 5702 5700 5698 5697 5696 5695 5694 5693 5692 5692 5690 5688 5687 5686 5685 5683 5681 5680 5679 5678 5678 5677 5677 5676 5675 5675 5674 5674 5674
5692 5682 5663 5665 5676 5692 5702 5711 5714 5710 5711 5708 5708 5694 5697 5706 5709 5707 5702 5702 5700 5697 5695 5695 5694 5693 5692 5691 5690 5688 5687 5686 5684 5683 5681 5679 5677 5677 5676 5676 5675 5674 5673 5673 5673 5672 5672 5671 5671
5676 5673 5655 5656 5674 5692 5701 5711 5718 5713 5706 5701 5699 5698 5696 5702 5704 5703 5701 5698 5697 5695 5693 5692 5691 5691 5690 5689 5688 5686 5685 5683 5681 5680 5678 5677 5675 5674 5673 5673 5673 5672 5671 5670 5669 5669 5668 5668 5669
5667 5661 5659 5665 5673 5685 5696 5709 5709 5710 5700 5698 5703 5693 5695 5695 5700 5702 5699 5696 5695 5693 5691 5689 5688 5688 5687 5686 5685 5684 5683 5681 5680 5678 5676 5675 5673 5672 5672 5672 5671 5670 5669 5668 5667 5666 5666 5665 5665
5660 5660 5660 5664 5669 5680 5699 5703 5708 5714 5699 5702 5704 5692 5691 5696 5697 5699 5695 5694 5693 5690 5689 5687 5686 5685 5685 5684 5683 5682 5681 5680 5678 5676 5675 5673 5672 5671 5671 5670 5669 5668 5667 5666 5665 5664 5662 5662 5661
5664 5647 5647 5666 5669 5686 5698 5695 5704 5711 5700 5693 5697 5704 5711 5701 5695 5694 5693 5690 5689 5688 5686 5685 5684 5683 5682 5681 5680 5679 5678 5677 5676 5674 5672 5671 5670 5668 5667 5666 5665 5665 5664 5663 5663 5661 5661 5661 5661
5644 5631 5656 5678 5684 5685 5693 5695 5695 5697 5688 5686 5694 5702 5703 5696 5692 5691 5691 5689 5688 5686 5684 5683 5682 5682 5680 5679 5678 5677 5676 5674 5672 5671 5670 5668 5668 5666 5665 5663 5662 5661 5661 5661 5660 5659 5659 5659 5659
5641 5635 5661 5676 5687 5688 5689 5690 5698 5691 5682 5694 5696 5697 5696 5692 5689 5688 5687 5688 5689 5686 5683 5681 5681 5679 5678 5677 5675 5674 5673 5672 5670 5669 5668 5666 5665 5664 5662 5661 5661 5659 5658 5657 5657 5657 5657 5656 5655
5630 5646 5654 5666 5680 5682 5681 5691 5691 5694 5702 5708 5703 5707 5698 5692 5689 5689 5686 5685 5684 5683 5682 5681 5679 5678 5676 5675 5673 5671 5670 5669 5668 5667 5666 5665 5663 5663 5661 5660 5660 5658 5657 5656 5654 5653 5652 5650 5650
5631 5643 5648 5659 5665 5676 5680 5682 5689 5692 5693 5698 5698 5695 5693 5690 5687 5687 5687 5683 5682 5681 5679 5680 5678 5677 5676 5673 5671 5669 5669 5668 5668 5666 5664 5662 5661 5660 5659 5659 5658 5657 5656 5654 5651 5650 5648 5645 5643
5631 5639 5643 5647 5653 5666 5668 5672 5685 5682 5685 5685 5688 5688 5688 5688 5685 5683 5683 5679 5678 5678 5676 5677 5677 5674 5673 5672 5669 5670 5669 5667 5665 5663 5661 5660 5659 5658 5657 5654 5652 5651 5650 5649 5647 5645 5642 5640 5636
5623 5620 5632 5639 5642 5647 5664 5657 5670 5678 5679 5675 5679 5682 5680 5682 5680 5681 5681 5679 5678 5677 5674 5672 5673 5672 5670 5669 5667 5667 5666 5663 5660 5658 5657 5656 5655 5655 5651 5647 5646 5643 5642 5642 5640 5639 5635 5633 5631
5607 5611 5608 5636 5632 5641 5647 5644 5671 5673 5671 5669 5671 5674 5675 5677 5677 5677 5679 5678 5677 5678 5672 5670 5670 5667 5667 5665 5665 5662 5658 5657 5655 5652 5650 5648 5647 5647 5643 5641 5639 5637 5635 5634 5630 5628 5626 5623 5619
5602 5609 5613 5620 5639 5635 5632 5640 5665 5664 5667 5662 5666 5668 5669 5669 5672 5675 5677 5676 5677 5676 5675 5667 5666 5663 5662 5660 5657 5653 5649 5647 5644 5643 5641 5640 5638 5636 5633 5631 5629 5628 5628 5624 5621 5620 5615 5611 5610
5574 5600 5612 5611 5633 5621 5625 5638 5652 5659 5663 5662 5663 5663 5664 5666 5670 5670 5672 5674 5672 5674 5671 5671 5665 5661 5658 5652 5647 5643 5639 5636 5633 5631 5630 5629 5627 5626 5624 5619 5615 5615 5612 5611 5609 5606 5605 5599 5596
5565 5551 5557 5616 5629 5614 5621 5634 5641 5649 5654 5654 5655 5656 5659 5662 5662 5667 5669 5669 5668 5666 5666 5665 5663 5656 5652 5646 5641 5636 5629 5625 5622 5621 5619 5618 5616 5615 5613 5609 5604 5600 5598 5595 5595 5592 5587 5584 5586
5560 5551 5560 5595 5619 5611 5615 5625 5642 5638 5646 5653 5655 5653 5654 5655 5651 5654 5656 5658 5659 5656 5655 5656 5654 5655 5649 5645 5639 5633 5624 5615 5612 5608 5606 5605 5602 5601 5599 5597 5594 5591 5582 5576 5576 5575 5573 5568 5568
5540 5545 5553 5556 5600 5608 5606 5606 5616 5632 5638 5644 5649 5654 5649 5652 5646 5642 5641 5642 5646 5644 5643 5643 5642 5643 5642 5636 5631 5623 5616 5608 5602 5596 5592 5589 5589 5582 5587 5582 5575 5574 5570 5565 5559 5557 5555 5553 5550
5544 5543 5542 5562 5580 5601 5613 5604 5608 5618 5626 5634 5637 5643 5644 5639 5634 5634 5632 5629 5630 5629 5629 5630 5630 5630 5630 5626 5623 5618 5613 5603 5591 5584 5582 5581 5577 5570 5563 5566 5559 5562 5552 5549 5544 5540 5538 5535 5528
5533 5534 5537 5549 5581 5593 5597 5598 5618 5616 5616 5618 5629 5634 5633 5630 5629 5626 5622 5621 5617 5620 5616 5616 5616 5615 5613 5611 5606 5604 5596 5588 5582 5578 5568 5564 5561 5561 5551 5549 5546 5546 5538 5534 5527 5523 5520 5515 5509
5525 5540 5540 5567 5580 5585 5596 5604 5606 5614 5627 5613 5615 5618 5622 5619 5616 5613 5610 5609 5605 5609 5608 5606 5604 5601 5598 5595 5592 5588 5580 5569 5564 5564 5559 5548 5545 5541 5541 5536 5531 5528 5524 5518 5513 5508 5502 5497 5493
5516 5522 5550 5562 5564 5578 5599 5592 5604 5624 5631 5630 5618 5612 5610 5608 5604 5604 5601 5597 5593 5598 5597 5596 5592 5588 5585 5583 5581 5579 5571 5563 5549 5547 5545 5538 5533 5528 5528 5522 5518 5511 5509 5506 5502 5496 5489 5482 5473
5513 5523 5533 5541 5565 5572 5585 5586 5600 5592 5604 5617 5613 5601 5595 5589 5590 5591 5590 5591 5584 5585 5586 5582 5579 5577 5574 5571 5566 5559 5558 5549 5543 5533 5532 5524 5519 5519 5515 5508 5504 5500 5498 5491 5485 5478 5471 5466 5461
5505 5527 5515 5526 5536 5566 5570 5567 5576 5583 5583 5592 5584 5581 5579 5578 5576 5574 5576 5580 5574 5573 5573 5571 5565 5562 5560 5556 5552 5543 5541 5537 5529 5528 5520 5508 5507 5506 5500 5494 5489 5485 5478 5473 5468 5463 5455 5449 5444
5522 5526 5527 5524 5541 5556 5564 5571 5584 5570 5570 5570 5569 5566 5562 5561 5562 5561 5564 5565 5566 5560 5560 5557 5553 5549 5544 5541 5537 5530 5526 5524 5518 5513 5506 5502 5500 5495 5489 5481 5474 5470 5463 5458 5453 5447 5439 5433 5426
5510 5520 5521 5523 5523 5537 5558 5564 5562 5575 5569 5564 5558 5556 5554 5553 5554 5554 5557 5553 5549 5549 5546 5542 5540 5535 5531 5528 5525 5520 5517 5512 5508 5503 5497 5491 5486 5481 5474 5466 5461 5455 5450 5445 5439 5432 5423 5417 5411
5499 5515 5527 5525 5526 5528 5538 5555 5549 5566 5567 5561 5554 5547 5546 5546 5547 5547 5543 5540 5536 5539 5533 5530 5527 5524 5520 5518 5514 5510 5504 5502 5499 5493 5485 5481 5473 5466 5460 5452 5446 5440 5433 5428 5421 5415 5408 5402 5395